Location: Unspecified
(0.0000°N, 0.0000°E)
Time: 05:31:25
(UTC+02:00)

Daily predictions for brighter satellites

Satellite Brightness Start Highest point End
(mag) Time Altitude Azimuth Time Altitude Azimuth Time Altitude Azimuth
Ariane H10-3 4.1 05:11:48 31° E 05:11:48 31° E 05:17:24 10° E
Ariane H10 4.2 05:19:08 40° ENE 05:19:08 40° ENE 05:28:22 10° E
ARIANE 5 DEB (SYLDA) 4.4 05:19:33 55° ENE 05:19:33 55° ENE 05:22:41 10° ENE
BLOCK DM-SL R/B 4.4 05:20:10 68° E 05:20:10 68° E 05:34:39 10° E
COSMOS 2428 4.0 05:32:17 37° ENE 05:32:17 37° ENE 05:36:16 10° NE
DELTA-4 R/B 4.3 05:37:45 43° ESE 05:37:45 43° ESE 05:40:23 10° E
Ariane H10 4.2 05:58:16 27° E 05:58:16 27° E 06:01:25 10° E
ADEOS II 2.3 05:54:54 10° NNE 05:59:40 68° ENE 05:59:40 68° ENE
ISS 0.0 06:05:14 10° NNE 06:06:46 13° NE 06:08:19 10° E
Sakura Rocket 4.2 06:14:26 32° ESE 06:14:26 32° ESE 06:17:28 10° E
Cosmos 2227 4.0 06:09:32 10° NNW 06:15:15 78° WSW 06:20:57 10° S
Cosmos 2360 Rocket 4.3 06:19:44 13° NNW 06:19:44 13° NNW 06:20:31 10° NNW
Thor Agena Rocket 3.6 06:15:12 10° SSE 06:20:16 73° ENE 06:25:17 10° N
Meteor 2-20 4.3 06:19:19 10° N 06:25:25 80° W 06:31:35 10° S
Cosmos 1515 Rocket 4.1 06:23:50 25° SSE 06:26:14 57° E 06:30:34 10° NNE
Ariane H10 3.4 06:26:27 64° NNE 06:26:27 64° NNE 06:31:57 10° ENE
Cosmos 1805 Rocket 4.1 06:24:18 10° N 06:28:36 57° E 06:32:56 10° SSE
Meteor 1-31 Rocket 2.6 06:26:03 10° N 06:29:40 80° N 06:29:40 80° N
Cosmos 2237 Rocket 3.2 06:26:19 10° S 06:31:40 45° ESE 06:37:02 10° NNE
NOSS 0 Rocket 4.2 06:28:19 17° S 06:33:12 66° ESE 06:39:16 10° NNE
Cosmos 1328 Rocket 3.4 06:34:01 56° SSW 06:34:50 73° W 06:39:15 10° N
Sich 1 4.1 06:36:10 10° NNE 06:40:20 45° E 06:44:33 10° SSE
Cosmos 2151 4.3 06:39:04 10° NNW 06:41:08 24° NW 06:41:08 24° NW
Mugunghwa Rocket 3.8 06:40:55 24° WNW 06:44:52 82° SSW 06:51:13 10° ESE
ARIANE 3 DEB 3.8 06:45:45 31° SSW 06:46:32 34° S 06:52:23 10° ESE
BREEZE M DEB (TANK) 3.2 06:38:30 10° NW 06:47:21 89° WSW 06:50:19 10° SE
Meteor 2-2 Rocket 4.4 06:41:40 10° S 06:47:31 81° E 06:53:27 10° N
Cosmos 292 Rocket 3.7 06:46:21 30° SSW 06:48:37 63° WNW 06:53:20 10° N
CZ-3A R/B 4.4 06:45:43 13° WNW 06:48:56 17° NNW 06:57:40 10° N
Lacrosse 4 Rocket 1.3 06:48:05 42° SW 06:49:10 60° WNW 06:53:14 10° N
Meteor 1-11 4.1 06:46:41 10° N 06:52:21 73° W 06:58:06 10° S
ARIANE 44L R/B 3.9 06:50:28 29° W 06:53:02 79° N 07:19:32 10° E
ADEOS Rocket 4.0 06:47:19 10° NNW 06:53:57 38° WNW 06:59:14 17° SW
Cosmos 405 3.8 06:56:47 31° WNW 06:56:47 31° WNW 06:59:48 10° NNW
Cosmos 2219 Rocket 2.3 06:53:15 23° SW 06:56:34 51° WNW 07:01:56 10° N
Ariane H10+ 4.0 06:50:51 23° W 06:56:41 80° S 07:31:48 10° E
Cosmos 1666 Rocket 3.4 06:52:29 10° N 06:56:49 84° W 07:01:08 10° S
ATLAS 3B R/B 3.5 06:50:30 10° S 06:57:54 61° ESE 07:05:28 10° NNE
MOS 1 Rocket 3.1 06:54:34 10° N 06:59:07 66° W 07:03:26 10° SSW
Cosmos 1553 Rocket 4.0 06:53:16 10° S 06:59:41 80° W 07:06:05 10° N
Cosmos 2333 Rocket 2.1 06:56:13 13° SSW 07:01:12 68° WNW 07:06:50 10° N
Cosmos 1437 Rocket 4.3 07:02:59 18° WNW 07:02:59 18° WNW 07:04:55 10° NW
NOAA 6 4.4 06:58:29 10° N 07:03:18 42° WNW 07:07:29 13° SW
Cosmos 2228 Rocket 4.4 07:03:49 20° W 07:03:49 20° W 07:06:52 10° NW
BREEZE-M DEB (TANK) 2.5 07:03:41 31° WSW 07:04:48 59° NW 07:10:25 10° NNE
Fermi 4.5 07:02:40 21° SW 07:05:03 45° SSE 07:09:02 10° E
CSL-04 Debris 4.3 07:03:37 10° NNE 07:09:06 82° ESE 07:14:37 10° S
Ariane H10 3.0 07:10:13 27° SW 07:10:54 34° S 07:12:59 10° ESE
CSL-04 Rocket 3.6 07:07:46 10° N 07:13:13 71° WNW 07:18:38 10° SSW
COSMOS 2428 4.4 07:14:22 12° W 07:14:55 12° WNW 07:17:13 10° NW
GPS 2-15 Rocket1 3.1 07:13:32 18° WSW 07:16:58 77° NNW 07:21:37 10° ENE
Cosmos 1703 3.2 07:15:24 10° NNW 07:19:19 65° W 07:23:14 10° S
ARIANE 5 DEB (SYLDA) 3.1 07:19:18 17° SW 07:20:24 21° S 07:21:55 10° SE
Ariane Rocket 3.7 07:18:42 10° NNW 07:23:10 32° WNW 07:27:40 10° SW
Cosmos 2058 4.4 07:21:19 10° NW 07:24:02 17° W 07:26:45 10° SW
Cosmos 1271 Rocket 4.0 07:22:09 10° SSE 07:25:45 43° E 07:29:22 10° NNE
RESURS DK-1 3.9 07:24:24 10° WNW 07:26:54 16° WSW 07:29:24 10° SW
ARIANE 5 DEB (SYLDA) 3.5 07:22:17 10° W 07:27:01 68° N 07:31:08 10° E
CZ-4 R/B 2.2 07:23:21 10° NNE 07:27:19 54° E 07:31:14 10° S
Cosmos 1633 Rocket 3.6 07:23:23 10° NNW 07:27:28 38° W 07:31:36 10° SSW
IRS-1A Rocket 4.4 07:23:57 10° N 07:29:45 70° WNW 07:35:39 10° SSW
GEOS 3 Rocket 4.3 07:29:07 10° S 07:33:44 31° WSW 07:38:19 10° WNW
ARIANE 5 R/B 3.0 07:17:21 10° W 07:34:52 78° S 07:38:07 10° E
Cosmos 2263 Rocket 2.2 07:30:49 10° NNW 07:36:14 56° WSW 07:41:41 10° S
Cosmos 1726 2.3 07:33:09 10° S 07:36:54 78° E 07:40:38 10° N
CCE 1 Rocket 3.4 07:33:13 10° WNW 07:37:00 68° SSW 07:41:34 10° SE
SMAP 4.3 07:35:12 10° NNE 07:39:36 44° ESE 07:44:02 10° S
ISS -1.8 07:40:39 10° W 07:43:00 18° SW 07:45:21 10° S
Cosmos 1151 Rocket 4.3 07:40:07 10° SW 07:43:16 20° W 07:46:25 10° NW
